Content
SEND FEEDBACK

Daily
Averages
Monthly
Summary
United States of America

STATEN ISLAND, NEW YORK


Home > North America > United States > New York
Elevation: 152 feet     Latitude: 40 35N     Longitude: 074 09W

WEATHER
 
SELECT A DAY
Number of Records: 192,473;   Date Range: 1/1/95 - 10/24/14
 
SHARE

PRINT THIS DATA

[ ← Previous Day ]
WEATHER ALMANAC - APRIL 1, 2013
[ Next Day → ]
[ °C ]   °F
Weather ElementAverageHighLow
Temperature48.6 °F64 °F (1:51 pm)37.9 °F (11:51 pm)
Dewpoint37.2 °F45 °F (12:51 am)10 °F (11:51 pm)
Humidity70 %100 % (3:45 am)27 % (9:51 pm)
Barometer29.72 in29.92 in (11:51 pm)29.62 in (2:51 pm)
Wind Speed12.9 mph25.3 mph (12:51 pm)
Wind Gust33.4 mph (2:51 pm)
Weather ElementAverage
Visibility8.9 mi
Wind DirectionWSW (260 °)

Weather ElementTotal
Precipitation---
Heating Degree Days14.1 (Base 65)
Growing Degree Days1 (Base 50)
Averaged from 31 records on April 1, 2013
WEATHER CONDITIONS BREAKOUT
WIND DIRECTION BREAKOUT
WEATHER BY HOUR - APRIL 1, 2013
[ °C ]   °F
Local TimeTemperatureDewpointHumidityBarometerVisibilityWind DirectionWind SpeedGust SpeedPrecipitationEventsConditions
12:51 AM46.0 °F45.0 °F96 %29.68 in3.0 miWest (270°)6.9 mphOvercast
1:51 AM46.9 °F45.0 °F93 %29.69 in8.0 miWest (260°)8.1 mphOvercast
2:10 AM46.4 °F44.6 °F93 %29.69 in10.0 miWSW (250°)10.4 mphOvercast
2:51 AM46.0 °F44.1 °F93 %29.71 in10.0 miSW (220°)8.1 mphMostly Cloudy
3:09 AM46.4 °F44.6 °F93 %29.70 in10.0 miWSW (240°)9.2 mphMostly Cloudy
3:45 AM44.6 °F44.6 °F100 %29.70 in10.0 miWSW (240°)6.9 mphScattered Clouds
3:51 AM45.0 °F43.0 °F93 %29.70 in10.0 miSW (220°)4.6 mphScattered Clouds
4:51 AM45.0 °F43.0 °F93 %29.71 in9.0 miSW (230°)10.4 mphPartly Cloudy
5:08 AM44.6 °F42.8 °F93 %29.71 in9.0 miSW (230°)10.4 mphMostly Cloudy
5:47 AM44.6 °F42.8 °F93 %29.72 in9.0 miWSW (240°)9.2 mphScattered Clouds
5:51 AM45.0 °F43.0 °F93 %29.72 in9.0 miSW (230°)8.1 mphScattered Clouds
6:51 AM43.0 °F42.1 °F97 %29.71 in5.0 miSW (220°)5.8 mphMostly Cloudy
7:51 AM46.0 °F44.1 °F93 %29.71 in5.0 miSW (230°)9.2 mphMostly Cloudy
7:59 AM46.4 °F44.6 °F93 %29.71 in5.0 miSW (230°)10.4 mphMostly Cloudy
8:51 AM48.9 °F45.0 °F86 %29.71 in6.0 miSW (230°)9.2 mphMostly Cloudy
9:51 AM53.1 °F45.0 °F74 %29.69 in9.0 miSW (230°)11.5 mphMostly Cloudy
10:51 AM55.0 °F44.1 °F67 %29.69 in9.0 miSW (230°)13.8 mph21.9 mphMostly Cloudy
11:51 AM59.0 °F43.0 °F55 %29.67 in10.0 miSW (230°)17.3 mph26.5 mphScattered Clouds
12:51 PM63.0 °F37.9 °F40 %29.65 in10.0 miSW (230°)25.3 mph31.1 mphMostly Cloudy
1:51 PM64.0 °F37.0 °F37 %29.63 in10.0 miWSW (250°)18.4 mph27.6 mphMostly Cloudy
2:51 PM62.1 °F36.0 °F38 %29.62 in10.0 miWest (260°)23.0 mph33.4 mphMostly Cloudy
3:51 PM59.0 °F36.0 °F42 %29.65 in10.0 miWNW (300°)23.0 mph32.2 mph0.00 inOvercast
4:51 PM48.9 °F37.0 °F64 %29.71 in10.0 miNNW (330°)20.7 mph33.4 mph0.00 inRainLight Rain
4:58 PM48.2 °F37.4 °F66 %29.72 in10.0 miNW (320°)21.9 mph28.8 mph0.00 inRainLight Rain
5:51 PM46.9 °F37.0 °F68 %29.73 in10.0 miNNW (330°)9.2 mph19.6 mph0.00 inMostly Cloudy
6:51 PM46.9 °F35.1 °F63 %29.74 in10.0 miWest (270°)4.6 mphScattered Clouds
7:51 PM48.9 °F19.9 °F32 %29.77 in10.0 miWest (280°)16.1 mph26.5 mphScattered Clouds
8:51 PM46.4 °F17.6 °F32 %29.83 in10.0 miNW (320°)20.7 mph27.6 mphPartly Cloudy
9:51 PM42.8 °F10.4 °F27 %29.87 in10.0 miNW (320°)20.7 mph29.9 mphPartly Cloudy
10:51 PM39.9 °F10.9 °F31 %29.90 in10.0 miNW (310°)9.2 mphClear
11:51 PM37.9 °F10.0 °F32 %29.92 in10.0 miNW (310°)16.1 mph24.2 mphClear
Hourly data recorded from KEWR, located miles away from Staten Island, New York







STORIES FROM OUR PARTNERS